Погода в Григоровом

Россия / Новгородская область     58°32′58″N   31°12′35″E
темп.,
°C
ветер,
м/с
пор.,
м/с
влажн.,
%
обл.,
%
осадки,
мм/ч
давл.,
гПа
погр.,
м
17 июня, чт
чт1700:00+13ююв11685 0.0 102111
03:00+12ююз117782 0.0 102215
06:00+13зюз24725 0.0 1023112
09:00+19зюз245321 0.0 1023569
12:00+22юз35444 0.0 10241575
15:00+24юз34395 0.0 10241886
18:00+24ююз234296 0.0 10241434
21:00+19ю2266100 0.0 102411
18 июня, пт
пт1800:00+17ююз22789 0.0 102434
03:00+15ююз228164 0.0 102529
06:00+16ююз26776 0.0 1025155
09:00+21ююз365825 0.0 1025403
12:00+25ююз46485 0.0 10241067
15:00+27ююз57401 0.0 10221634
18:00+26ююз46481 0.0 10211463
21:00+21юз35724 0.0 102168
19 июня, сб
сб1900:00+18юз34780 0.0 102261
03:00+16юз39860 0.0 1022158
06:00+18юз310815 0.0 1023276
09:00+23юз46644 0.0 1023476
12:00+26ююз46525 0.0 10221365
15:00+28ююз564247 0.0 10211809
18:00+27ююз36485 0.0 10201590
21:00+22ююз35720 0.0 102079
20 июня, вс
вс2000:00+19ююз23810 0.0 102048
03:00+18ююз23840 0.0 102155
06:00+18ююз28820 0.0 1021214
09:00+23ю466810 0.0 1020450
12:00+27ююз46550 0.0 10201189
15:00+29ю45480 0.0 10191737
18:00+28ю35503 0.0 1018917
21:00+23ю34700 0.0 101862
21 июня, пн
пн2100:00+20юз23800 0.0 101843
03:00+19юз22860 0.0 101915
06:00+20ю23820 0.0 101976
09:00+25ю22630 0.0 1019382
12:00+28ю33540 0.0 10191017
15:00+30ю23465 0.0 10181537
18:00+30ю134447 0.0 10171208
21:00+25ююв226361 0.1 101811